This demonstration page uses our WeatherBlox Daily Observations layout. Learn more.

Left ArrowRight Arrow

39.12711, -84.51439

Hourly Observations for October 5, 2016

Temp ( °F °C ) Dew Point ( °F °C ) Humidity (%) Winds ( mph kmh ) Pressure ( in mb ) Visibility ( mi km ) Precip ( " mm )
12:03 am 00:03 Clear with Mist and Fog 61 16 61 16 100 100 Calm 30.06 1018 2 2 0.00 0.00
12:11 am 00:11 Clear with Fog 60 15.6 60 15.6 100 100 Calm 30.06 1018 1 1 0.00 0.00
12:20 am 00:20 Clear with Mist and Fog 61 16 61 16 100 100 Calm 30.06 1018 2 3 0.00 0.00
12:31 am 00:31 Clear with Mist and Fog 59 15 59 15 100 100 Calm 30.09 1019 5 8 0.00 0.00
12:37 am 00:37 Clear with Mist and Fog 59 15 59 15 100 100 Calm 30.09 1019 2 3 0.00 0.00
12:48 am 00:48 Clear with Mist and Fog 59 15 59 15 100 100 Calm 30.09 1019 1 1 0.00 0.00
12:53 am 00:53 Clear with Mist and Fog 60 15.6 60 15.6 100 100 Calm 30.07 1018 1 2 0.00 0.00
1:04 am 01:04 Clear with Mist and Fog 59 15 59 15 100 100 Calm 30.09 1019 3 4 0.00 0.00
1:24 am 01:24 Clear with Mist and Fog 59 15 59 15 100 100 Calm 30.09 1019 1 1 0.00 0.00
1:37 am 01:37 Clear with Mist and Fog 58 14.4 58 14.4 100 100 Calm 30.09 1019 2 3 0.00 0.00
1:44 am 01:44 Clear 59 15 59 15 100 100 Calm 30.09 1019 9 14 0.00 0.00
1:53 am 01:53 Clear with Mist and Fog 59 15 59 15 100 100 Calm 30.08 1019 1 2 0.00 0.00
2:03 am 02:03 Clear with Mist and Fog 57 14 57 14 100 100 Calm 30.09 1019 1 1 0.00 0.00
2:09 am 02:09 Mostly Cloudy with Fog 58 14.4 58 14.4 100 100 Calm 30.09 1019 0 0 0.00 0.00
2:18 am 02:18 Clear with Fog 59 15 59 15 100 100 Calm 30.09 1019 1 1 0.00 0.00
2:29 am 02:29 Clear with Mist and Fog 57 13.9 57 13.9 100 100 Calm 30.09 1019 1 2 0.00 0.00
2:36 am 02:36 Clear with Fog 57 13.9 57 13.9 100 100 Calm 30.09 1019 1 1 0.00 0.00
2:41 am 02:41 Mostly Cloudy with Fog 58 14.4 58 14.4 100 100 Calm 30.09 1019 0 0 0.00 0.00
2:53 am 02:53 Clear with Fog 58 14.4 58 14.4 100 100 Calm 30.09 1019 1 1 0.00 0.00
2:55 am 02:55 Mostly Cloudy with Fog 58 14.4 58 14.4 100 100 Calm 30.09 1019 0 0 0.00 0.00
3:25 am 03:25 Mostly Clear with Mist and Fog 58 14.4 58 14.4 100 100 Calm 30.09 1019 1 2 0.00 0.00
3:28 am 03:28 Mostly Clear with Mist and Fog 57 14 57 14 100 100 Calm 30.09 1019 3 5 0.00 0.00
3:53 am 03:53 Clear with Mist and Fog 57 13.9 57 13.9 100 100 Calm 30.09 1019 4 6 0.00 0.00
4:53 am 04:53 Clear with Mist and Fog 56 13.3 56 13.3 100 100 Calm 30.10 1019 5 8 0.00 0.00
5:53 am 05:53 Clear 57 13.9 57 13.9 100 100 VRB 3 6 30.11 1020 7 11 0.00 0.00
6:53 am 06:53 Mostly Clear 58 14.4 58 14.4 100 100 Calm 30.13 1020 9 14 0.00 0.00
7:53 am 07:53 Mostly Sunny 57 13.9 57 13.9 100 100 Calm 30.15 1021 10 16 0.00 0.00
8:53 am 08:53 Partly Cloudy 63 17.2 60 15.6 90 90 Calm 30.17 1022 10 16 0.00 0.00
9:53 am 09:53 Partly Cloudy 66 18.9 60 15.6 81 81 Calm 30.17 1022 10 16 0.00 0.00
10:53 am 10:53 Mostly Cloudy 70 21.1 62 16.7 76 76 VRB 3 6 30.17 1022 10 16 0.00 0.00
11:53 am 11:53 Mostly Cloudy 74 23.3 62 16.7 67 67 S 8 13 30.15 1021 10 16 0.00 0.00
12:53 pm 12:53 Partly Cloudy 75 23.9 62 16.7 64 64 SSW 7 11 30.14 1021 10 16 0.00 0.00
1:53 pm 13:53 Mostly Cloudy 78 25.6 63 17.2 60 60 SSW 8 13 30.12 1020 10 16 0.00 0.00
2:53 pm 14:53 Mostly Cloudy 77 25 62 16.7 60 60 S 6 9 30.10 1019 10 16 0.00 0.00
3:53 pm 15:53 Mostly Sunny 80 26.7 63 17.2 56 56 SW 3 6 30.08 1019 10 16 0.00 0.00
4:53 pm 16:53 Mostly Sunny 80 26.7 63 17.2 56 56 SSE 6 9 30.06 1018 10 16 0.00 0.00
5:53 pm 17:53 Sunny 79 26.1 62 16.7 56 56 S 8 13 30.06 1018 10 16 0.00 0.00
6:53 pm 18:53 Partly Cloudy 73 22.8 66 18.9 79 79 Calm 30.07 1018 10 16 0.00 0.00
7:53 pm 19:53 Clear 68 20 65 18.3 90 90 Calm 30.09 1019 10 16 0.00 0.00
8:53 pm 20:53 Mostly Cloudy 65 18.3 64 17.8 97 97 Calm 30.10 1019 10 16 0.00 0.00
9:53 pm 21:53 Mostly Cloudy 65 18.3 65 18.3 100 100 Calm 30.11 1020 10 16 0.00 0.00
10:53 pm 22:53 Mostly Clear 64 17.8 64 17.8 100 100 Calm 30.12 1020 10 16 0.00 0.00
11:53 pm 23:53 Clear 62 16.7 62 16.7 100 100 Calm 30.13 1020 8 13 0.00 0.00

Powered by AerisWeather